GFSWCAN_850_rhum_264.txt.gz
RH
98 99 100 98 99 95 91 84 97 98 87 94 71 95 92 96 78 94 93 84 91 96 88 88 100 100 96 92 71 64 60 66 61 68 66 68 68 74 74 80 81 70 78 73 72 83 88 86 60 68 86 84 91 90
100 100 100 100 97 98 98 94 90 84 85 92 89 88 98 93 84 88 89 82 100 94 90 83 87 85 98 95 95 94 85 86 84 75 82 73 60 72 83 65 71 78 88 79 87 83 89 96 94 100 100 94 94 94
98 97 98 98 99 94 88 98 96 85 90 91 86 83 81 96 93 92 93 80 94 98 81 92 95 94 96 93 84 88 86 94 98 92 87 78 78 78 72 82 82 82 91 78 78 80 84 93 98 100 100 99 99 99
99 100 98 99 96 92 89 86 95 94 90 90 91 90 86 90 95 94 88 70 99 92 81 74 93 99 98 95 84 78 85 86 93 99 93 86 82 80 82 83 77 85 86 88 88 87 96 99 100 100 100 100 100 100
94 95 87 96 90 98 98 96 91 88 93 94 83 91 91 88 96 98 80 72 85 94 80 80 92 96 94 88 79 82 75 89 100 94 88 88 86 84 84 82 84 92 89 85 85 96 97 95 99 99 95 98 99 100
99 87 86 94 94 98 96 93 98 80 98 97 89 83 88 96 97 100 94 83 91 91 96 82 98 97 96 96 95 65 74 81 84 95 93 99 96 92 86 85 93 100 100 97 95 99 99 99 95 99 93 96 97 100
99 93 92 92 90 97 88 95 83 99 88 93 89 92 73 85 95 100 83 71 83 95 98 82 89 86 74 94 96 67 65 77 76 92 96 93 94 85 83 85 96 100 98 98 98 92 98 92 100 97 96 97 97 96
99 99 99 98 99 98 99 91 95 89 94 88 76 65 51 75 94 98 97 97 86 86 94 91 73 68 52 77 91 96 63 70 81 94 94 85 82 74 86 95 100 99 100 98 96 98 98 98 98 96 96 95 90 88
95 98 95 100 100 95 89 91 93 93 86 79 51 69 96 97 94 99 100 96 97 87 97 79 79 73 50 79 98 99 86 79 73 73 82 66 68 88 92 99 100 98 99 96 95 98 97 98 99 100 100 95 99 92
98 94 100 93 91 89 88 87 90 94 86 58 63 82 93 83 81 100 80 89 62 74 95 89 87 67 70 77 86 86 98 85 89 79 73 76 86 98 98 98 98 99 99 100 100 96 100 100 100 100 100 100 100 100
99 99 94 92 94 92 93 97 99 86 56 53 52 68 67 71 79 67 64 74 78 85 94 97 93 82 78 89 87 98 90 85 89 86 75 85 86 91 98 99 99 98 100 100 100 100 100 100 100 100 100 100 100 100
87 96 94 96 94 93 97 98 96 59 60 67 68 55 45 44 44 65 90 85 84 89 92 90 89 95 96 97 92 94 90 87 92 80 76 86 86 99 100 100 100 100 100 100 100 99 99 100 100 100 100 100 100 99
62 92 89 81 98 90 49 42 46 51 55 60 46 48 53 71 85 85 93 86 87 88 96 95 86 99 97 99 94 88 87 90 86 84 85 84 98 98 100 100 100 100 100 100 100 98 97 99 96 94 97 97 93 96
24 52 40 61 95 40 37 36 38 42 44 51 60 90 88 88 83 87 87 87 92 98 98 100 94 92 97 89 89 87 88 82 89 87 88 85 98 100 100 100 100 100 100 100 100 98 98 98 98 97 96 96 94 89
23 35 48 52 47 42 40 36 38 42 51 69 70 98 89 96 96 96 97 98 99 100 100 96 96 94 89 88 83 84 86 86 81 85 82 94 100 100 100 100 100 100 100 100 100 99 99 99 98 99 99 98 97 97
33 40 46 45 49 44 39 44 43 48 61 70 83 92 81 79 83 95 98 99 100 100 98 99 90 89 90 86 81 90 83 86 84 85 96 100 100 100 100 100 100 100 100 100 100 100 100 100 98 96 98 100 94 94
40 44 40 42 54 48 43 47 46 62 75 73 78 84 87 87 94 100 100 94 87 100 93 87 88 94 78 86 85 80 87 85 92 93 99 100 100 100 98 100 100 100 100 100 100 100 100 100 99 100 97 95 93 90
40 41 46 35 52 57 39 55 56 59 86 76 77 78 82 86 91 90 83 71 77 97 87 93 80 90 87 88 84 84 91 95 98 100 100 100 100 100 100 100 100 100 100 98 99 100 100 98 100 100 100 100 93 86
41 43 49 33 58 60 57 64 62 91 82 65 57 58 62 72 69 62 66 67 59 63 65 71 92 92 82 86 88 90 95 99 100 100 100 100 99 100 100 100 99 99 99 98 100 100 100 97 99 98 97 100 100 90
40 48 45 29 62 58 72 75 64 60 62 71 82 82 73 67 63 60 61 61 61 69 89 92 86 95 97 99 100 100 100 100 100 100 100 100 100 100 100 99 97 96 96 96 97 100 100 95 96 94 93 100 99 86
35 40 36 27 39 60 85 89 87 71 66 85 100 98 84 72 64 67 70 70 72 100 95 100 100 100 100 100 100 100 100 100 100 100 100 100 100 100 99 99 99 98 96 96 93 92 94 97 97 97 93 97 90 93
28 29 37 42 51 67 80 92 98 96 93 96 96 92 90 89 91 80 74 79 98 100 100 100 100 100 100 100 100 100 100 100 100 100 99 100 97 94 94 98 95 95 98 99 95 92 94 99 99 100 100 97 99 93
25 26 35 48 51 58 74 78 81 87 88 96 92 89 98 100 92 72 82 96 100 100 100 100 100 100 100 100 100 100 100 99 100 100 98 97 100 100 100 99 99 97 93 95 96 98 99 100 100 100 100 99 98 93
29 36 45 53 61 74 68 72 78 83 86 91 100 100 100 96 73 72 98 99 100 100 100 100 98 95 98 99 100 100 98 99 100 100 100 99 98 98 100 99 99 98 91 90 99 100 100 100 100 100 100 98 94 95
32 62 58 78 76 70 91 91 90 87 100 100 100 99 94 90 97 100 99 95 98 98 100 100 100 100 100 99 100 100 100 100 99 98 100 100 100 94 99 100 100 100 100 100 100 100 100 100 100 100 100 100 99 96
96 80 72 90 91 83 98 100 100 100 100 99 100 100 88 85 91 98 94 98 98 98 100 100 100 96 98 100 100 99 100 100 100 100 100 100 100 100 98 95 91 89 100 100 100 100 100 100 100 100 100 100 99 99
91 93 81 84 90 85 92 94 96 94 100 100 100 97 89 97 98 85 95 99 100 100 100 100 100 100 100 98 98 99 100 100 100 100 97 97 96 99 100 100 99 100 96 97 99 100 100 100 100 100 100 98 100 100
80 83 76 78 78 84 90 99 98 100 100 100 100 99 98 94 86 93 99 100 100 99 100 100 100 100 98 98 99 97 98 100 100 100 100 100 100 100 100 100 100 100 100 100 100 100 100 100 100 100 100 100 100 100
78 84 83 91 91 86 88 86 87 84 90 96 94 93 89 84 85 96 98 100 100 100 100 99 98 99 100 100 100 100 98 98 94 91 92 94 92 98 100 99 100 100 99 99 100 100 100 100 100 100 100 100 100 100
78 86 84 90 84 96 83 82 77 82 84 87 91 89 89 86 85 95 99 99 98 99 100 100 100 99 98 98 97 99 100 100 100 100 100 97 100 100 99 98 100 100 100 98 98 99 99 99 99 99 100 100 100 100
78 85 84 92 94 90 84 79 78 79 83 86 90 92 95 84 83 93 99 99 99 100 98 98 100 99 97 99 98 94 92 96 100 100 100 100 100 100 100 100 100 100 99 100 99 98 98 98 99 99 100 100 100 100
76 80 82 88 93 95 93 92 91 87 87 88 91 93 90 86 86 99 100 100 98 96 99 99 95 96 98 89 86 92 100 100 100 99 96 100 100 100 100 99 99 100 100 99 99 99 98 99 99 99 100 100 100 100
77 79 82 85 86 86 84 88 91 90 93 93 90 89 87 88 87 98 100 99 99 98 98 98 96 92 83 66 64 74 94 99 98 99 99 100 100 100 99 98 100 99 98 98 99 99 99 99 98 99 100 100 100 100

GFSWCAN_850_rhum_267.txt.gz
RH
99 98 94 96 94 92 98 97 92 97 95 75 90 91 89 93 94 97 96 86 84 94 70 73 95 91 78 75 66 49 47 64 45 53 47 54 47 77 54 70 71 62 76 63 60 69 82 83 57 72 88 83 85 86
96 100 99 96 98 92 94 96 94 94 95 89 90 80 84 84 89 97 98 93 80 99 76 88 83 90 96 91 96 67 64 60 66 62 67 49 51 56 72 56 62 75 87 82 87 85 87 92 93 97 97 91 90 92
96 98 98 99 98 94 97 98 98 94 92 86 88 87 91 76 93 98 98 96 86 93 63 56 70 98 93 97 91 82 64 86 89 86 76 60 62 64 53 85 79 76 83 78 76 78 84 88 89 94 96 95 94 91
99 100 99 98 99 97 100 99 95 90 92 66 88 93 96 77 86 91 95 95 90 86 60 59 71 98 98 96 90 81 89 92 97 93 81 75 76 72 76 78 68 80 85 85 85 85 92 95 98 100 99 95 97 98
98 99 96 97 97 98 100 96 88 97 70 99 91 94 86 84 84 96 97 86 82 78 64 56 92 94 95 96 95 83 87 97 95 90 85 87 80 81 76 71 80 85 88 87 89 95 95 96 100 100 100 100 100 100
98 98 100 99 96 99 98 100 100 88 98 88 86 84 92 88 79 96 96 92 91 100 98 66 100 100 96 96 96 96 89 97 100 92 89 92 94 91 79 81 90 97 100 98 95 100 99 97 100 96 94 96 94 99
98 97 96 96 95 97 99 93 92 93 89 86 83 74 52 71 85 98 83 89 78 88 93 70 90 85 92 96 95 83 68 77 98 94 88 88 88 76 76 82 92 98 100 100 99 92 99 98 99 96 96 96 96 98
98 89 94 98 99 95 91 87 90 91 86 81 68 60 78 78 99 97 97 97 94 97 95 87 71 66 51 80 93 97 89 95 94 93 91 83 76 69 84 91 97 100 100 99 100 97 98 96 93 99 98 99 100 99
97 93 99 92 89 90 91 90 95 93 99 80 53 73 83 88 96 96 94 94 96 87 90 82 85 86 59 65 80 98 93 82 78 73 81 66 66 85 88 94 97 100 100 100 92 97 95 97 96 100 100 100 100 100
97 92 89 91 94 92 94 97 92 92 54 49 73 83 88 86 97 90 81 76 77 88 97 84 70 71 66 64 77 87 95 86 86 78 68 71 83 100 100 100 100 100 98 100 99 90 96 95 99 100 100 100 100 100
82 93 94 95 95 97 96 85 68 45 47 52 71 80 75 80 72 61 77 76 77 78 83 87 86 77 80 86 86 96 88 85 85 85 75 74 82 88 100 100 99 100 100 100 100 100 100 100 100 100 99 98 100 100
48 95 87 61 99 63 38 36 39 43 52 57 54 47 45 52 70 69 79 72 73 84 80 77 79 85 89 100 91 91 88 83 88 76 72 79 86 98 98 100 100 100 100 100 100 100 100 100 100 100 100 100 100 100
32 72 39 60 96 41 36 35 38 44 50 46 45 50 68 75 77 76 86 75 78 80 86 88 82 87 93 96 90 85 84 88 80 79 80 84 91 94 98 98 95 98 100 100 100 100 100 100 100 100 100 100 100 100
21 36 44 50 47 44 39 35 37 42 45 51 74 84 73 77 75 81 81 81 82 90 89 91 88 86 91 85 86 83 84 76 81 80 84 82 94 95 93 94 96 97 100 100 100 100 100 100 100 100 100 100 100 100
28 40 46 37 45 45 40 40 42 39 48 70 77 84 82 85 82 90 92 87 89 96 95 88 91 85 82 83 80 79 79 82 77 84 82 89 96 96 97 98 100 100 100 100 100 100 100 100 100 100 100 100 100 100
35 39 40 41 51 47 44 48 40 41 53 73 88 76 67 65 74 82 88 87 90 100 100 95 83 81 83 80 74 84 77 83 83 82 92 96 100 100 100 100 100 100 100 100 100 100 100 100 100 100 100 100 100 97
38 39 41 45 56 47 39 40 43 51 58 81 83 73 74 78 78 80 79 86 90 99 81 79 78 89 68 75 78 76 85 83 88 89 94 100 100 100 100 100 100 100 100 100 100 100 100 100 98 100 100 100 100 100
38 38 41 37 57 60 35 48 49 50 87 90 72 76 67 70 73 79 77 83 91 85 75 81 75 74 79 79 78 80 85 87 90 94 98 100 100 100 100 100 100 100 100 100 99 98 100 99 100 100 100 100 100 100
40 37 35 37 62 51 52 55 50 81 79 71 69 68 71 72 74 77 78 83 86 86 89 78 70 79 76 80 82 83 88 92 93 94 96 100 100 100 100 100 100 100 99 95 95 98 100 98 99 100 100 100 100 100
39 43 32 35 60 50 64 62 54 58 80 86 93 87 84 79 84 87 84 84 91 90 82 77 79 87 91 96 100 99 100 100 100 94 88 96 100 100 100 100 100 97 93 93 94 100 100 100 100 100 100 100 100 100
35 37 32 27 38 58 79 84 75 74 84 100 100 100 88 68 70 82 87 88 85 88 85 92 95 100 100 100 100 100 100 100 100 100 100 100 100 100 100 100 100 100 100 100 100 100 100 100 100 100 100 100 100 100
30 33 31 37 50 65 76 90 95 92 94 94 96 90 98 96 100 84 79 86 91 97 100 100 100 100 100 100 100 100 100 100 100 100 100 100 100 100 100 100 100 100 100 100 100 96 92 97 98 100 100 100 100 96
26 26 35 47 48 57 75 76 80 84 92 99 90 91 99 100 85 69 96 100 96 100 100 100 100 100 100 100 100 100 100 100 100 100 99 99 100 100 100 100 100 100 97 94 95 99 99 100 100 100 100 99 96 94
28 34 41 50 56 72 66 72 76 84 86 93 89 90 96 97 68 87 84 90 100 100 100 100 100 100 100 100 100 100 100 100 99 100 100 100 100 100 100 100 100 98 97 96 100 99 98 98 100 99 99 98 94 94
29 56 55 74 68 68 81 86 85 85 92 99 90 90 98 82 84 89 88 91 100 100 100 100 100 100 100 100 100 100 100 100 100 98 100 100 100 99 100 100 100 100 100 99 98 100 100 100 100 100 100 100 100 91
88 72 74 88 86 77 86 88 92 96 93 92 96 97 82 86 84 94 89 100 100 100 100 100 100 98 99 100 100 100 100 100 100 100 100 100 100 100 99 97 95 93 100 100 100 100 100 100 100 100 100 100 100 100
88 88 73 82 83 80 88 89 90 90 95 97 94 92 80 90 91 88 95 99 100 100 100 100 100 100 100 99 100 100 100 100 100 100 99 98 99 99 100 100 100 100 98 100 100 100 100 100 100 100 100 100 100 100
80 75 77 74 76 77 86 90 89 96 96 98 98 96 92 86 86 96 100 100 100 99 100 100 100 100 99 98 98 98 99 100 100 100 100 100 100 100 100 100 100 100 100 100 100 100 100 100 100 100 100 100 100 100
79 81 79 88 84 79 86 89 93 91 94 97 95 89 90 83 88 96 98 98 99 99 98 97 98 99 100 100 100 100 100 100 97 96 96 96 95 99 100 100 100 99 99 99 100 100 100 100 100 99 100 100 100 100
78 83 82 84 81 93 84 82 81 83 82 88 93 90 90 86 87 96 99 99 99 99 100 100 99 99 99 98 98 100 100 100 100 100 99 98 100 100 98 99 98 99 100 99 98 99 99 99 100 99 99 99 100 100
81 83 82 86 90 86 82 78 77 79 84 86 90 92 92 82 84 96 99 100 100 100 98 96 97 99 92 90 88 92 93 98 100 100 100 100 100 100 100 100 100 99 99 99 99 98 99 99 99 100 100 100 100 100
78 82 83 91 90 86 84 85 85 85 86 88 91 90 88 85 88 99 100 100 97 94 99 98 90 86 82 78 84 94 100 100 100 100 99 100 100 100 100 100 100 100 99 99 99 99 99 99 99 99 100 100 100 100
79 78 80 85 86 87 86 88 89 90 90 89 82 82 85 87 88 97 97 96 95 92 95 94 87 82 72 71 90 96 100 100 99 100 99 100 100 100 99 100 100 100 100 99 99 99 99 100 100 100 100 100 100 100

GFSWCAN_850_rhum_270.txt.gz
RH
98 96 97 97 96 99 95 91 89 99 91 93 78 77 85 84 80 82 91 96 96 96 78 74 76 80 84 77 83 81 60 81 66 82 79 78 75 88 66 89 86 80 98 97 87 93 100 90 64 83 99 96 95 96
98 100 98 95 99 99 97 85 99 93 94 94 92 92 70 97 97 78 85 93 97 97 79 75 76 78 82 90 97 88 65 61 80 92 87 84 69 76 83 91 79 93 98 100 100 100 98 93 98 98 94 96 96 95
94 98 98 99 93 94 96 100 98 94 89 98 96 92 95 92 92 87 88 97 96 96 74 71 78 87 73 83 96 98 85 80 89 81 88 90 93 93 96 94 97 89 87 96 96 94 98 97 96 96 97 99 99 96
93 99 91 100 95 94 100 96 96 100 100 97 96 89 86 83 80 81 86 94 99 92 65 79 80 69 86 96 97 92 90 91 88 82 85 96 96 75 98 89 90 93 90 99 100 90 98 99 95 100 93 100 99 97
99 98 98 99 95 98 96 99 95 96 88 95 90 90 86 82 80 74 100 97 91 81 87 94 92 99 88 89 95 95 96 91 95 95 95 99 89 92 80 85 100 98 100 100 100 98 99 100 94 89 86 94 98 100
99 98 96 93 99 98 98 96 91 88 91 98 82 80 63 60 70 75 98 91 97 93 88 87 97 91 94 97 96 94 81 85 86 91 95 92 94 98 98 100 100 97 98 96 99 96 96 95 100 90 87 89 92 99
97 94 99 97 100 90 92 91 88 95 85 89 99 66 65 68 87 97 98 97 100 90 84 90 94 74 95 96 94 90 70 83 84 91 94 94 89 82 96 100 100 95 100 98 95 92 99 94 94 92 92 90 90 92
94 97 97 98 92 93 90 90 95 96 94 98 95 71 80 92 99 88 97 97 94 94 85 96 87 64 53 82 95 94 93 82 86 93 91 90 80 67 100 100 100 93 100 100 93 96 96 93 90 99 94 99 97 96
98 99 92 95 95 93 93 91 90 93 94 48 54 80 88 77 90 88 88 88 88 81 94 87 94 94 63 62 69 94 92 91 84 91 92 82 82 100 100 98 97 99 99 97 91 99 99 100 100 99 97 92 96 97
100 82 93 94 94 96 94 58 36 39 43 49 83 79 90 96 97 86 70 74 70 84 85 91 72 87 71 71 81 83 91 94 98 93 76 86 100 98 97 100 98 99 97 100 93 90 92 92 94 100 99 100 100 100
33 83 92 45 97 92 44 34 33 35 41 53 72 76 76 68 65 66 83 80 74 90 85 93 77 83 87 96 96 88 96 94 98 96 92 96 100 98 99 95 97 98 98 100 99 99 100 97 100 97 95 99 100 98
25 49 36 83 97 68 40 34 36 38 43 45 45 46 51 50 57 73 91 71 86 96 87 82 83 82 87 94 96 93 96 93 100 84 89 100 99 99 96 99 99 96 94 97 96 99 99 100 100 98 100 100 100 100
18 29 43 56 44 44 39 36 37 41 44 43 43 51 59 63 83 89 97 94 96 92 96 96 92 88 90 94 94 96 94 99 86 93 99 100 98 91 94 97 96 100 96 99 99 99 98 100 100 100 100 100 100 100
19 39 46 38 44 45 43 40 39 44 45 52 66 88 87 94 93 96 96 96 89 97 91 97 98 92 92 94 95 94 95 86 97 95 100 98 98 98 97 99 92 97 99 95 98 100 100 100 100 100 100 100 100 100
26 41 48 36 47 47 42 43 39 40 43 69 71 100 94 96 85 88 90 89 98 86 96 93 96 83 90 96 86 87 92 98 95 99 96 99 99 96 97 99 100 97 99 98 100 100 100 100 100 100 98 97 99 98
33 39 44 45 49 48 42 37 35 36 44 68 75 80 70 72 83 84 83 89 83 89 95 97 90 94 98 96 89 100 93 98 97 96 99 96 99 99 97 100 100 100 100 100 99 100 100 100 100 97 98 100 100 97
38 39 40 45 58 35 34 36 36 42 68 80 80 69 68 75 79 83 78 82 83 99 96 86 94 100 67 92 97 94 100 96 98 96 94 100 99 98 100 100 100 100 100 100 100 97 100 100 97 100 100 96 98 100
36 35 30 42 61 58 29 40 41 52 79 75 73 73 71 74 81 81 82 86 86 89 80 92 68 92 99 99 98 97 97 95 99 99 98 97 94 96 100 100 100 100 100 99 97 96 100 100 93 99 99 96 95 100
37 33 26 52 52 41 44 46 51 76 74 74 74 70 73 84 87 90 90 90 87 84 81 69 89 100 97 96 98 95 96 98 97 96 99 100 98 100 99 100 100 100 100 94 94 95 98 100 100 99 99 98 100 100
41 34 25 45 51 44 54 55 58 72 89 81 92 86 80 84 80 78 80 79 71 74 83 94 99 100 100 98 98 100 100 100 98 98 94 92 100 100 99 100 100 100 97 96 95 100 99 100 97 96 96 100 100 100
37 32 30 26 36 52 74 82 77 88 98 95 95 95 83 78 63 67 81 77 74 97 98 98 100 99 98 100 100 99 100 100 100 100 100 100 100 100 100 100 100 100 100 100 100 96 99 94 96 99 100 100 100 100
31 30 27 34 49 63 74 88 90 90 90 91 90 87 87 90 92 74 78 85 99 100 100 100 100 100 100 100 100 100 100 100 100 100 100 100 99 97 97 99 100 98 99 99 98 95 95 100 100 100 100 100 100 99
25 26 34 42 44 56 73 73 77 81 91 95 91 88 94 99 77 81 89 98 98 100 100 100 100 100 100 99 98 100 100 100 100 100 100 100 100 100 100 100 100 100 94 92 100 100 99 100 100 100 100 100 98 92
28 31 38 48 52 70 64 69 76 80 80 87 88 98 94 81 68 82 93 98 100 97 98 99 99 98 95 98 100 100 100 100 100 100 100 100 99 97 100 98 98 99 100 100 100 100 97 98 100 96 96 98 96 95
26 53 52 69 65 62 79 81 80 82 97 98 96 98 90 78 92 98 100 99 97 99 99 98 98 100 100 100 100 100 100 100 100 98 100 100 100 98 98 99 100 100 99 100 98 100 100 100 100 100 100 100 98 91
89 75 78 88 81 79 87 97 98 98 94 96 100 91 76 85 95 100 99 98 99 100 100 100 100 98 97 100 100 99 100 100 100 99 100 100 100 100 99 98 96 94 100 100 100 100 100 100 100 100 100 100 100 100
89 90 70 81 79 76 83 84 88 86 100 100 96 90 84 93 100 98 98 100 100 100 100 100 100 100 100 100 100 100 100 100 100 100 99 97 96 98 100 100 100 99 98 100 100 100 100 100 100 100 100 100 100 100
77 71 70 73 73 75 81 87 90 100 99 97 94 100 95 95 100 96 100 100 100 100 100 100 100 100 100 100 100 98 97 98 100 100 100 100 100 100 98 100 100 100 100 100 100 100 100 100 100 100 100 100 100 100
79 78 78 82 80 80 91 97 98 94 95 98 99 95 89 83 88 97 98 99 98 98 96 95 94 98 99 100 100 100 100 98 95 93 95 95 93 98 100 100 100 100 100 100 100 100 100 100 100 100 100 100 100 100
78 81 77 80 83 100 87 84 81 84 86 91 92 89 88 84 88 97 99 99 98 99 100 100 100 98 97 96 96 99 100 100 100 100 98 96 100 100 98 99 99 100 100 99 98 98 99 99 99 99 99 99 99 100
81 81 77 80 85 84 82 79 80 84 85 87 89 89 86 80 83 95 99 100 100 99 93 91 95 98 92 93 96 93 90 97 100 100 100 100 99 100 100 100 100 100 100 99 99 99 99 99 99 99 100 100 100 100
76 81 83 88 81 82 82 82 83 84 84 81 81 83 83 82 89 96 98 97 87 83 94 94 85 83 88 99 100 100 100 100 100 99 97 100 100 100 100 100 99 100 100 99 100 100 100 100 100 100 100 100 100 100
76 77 80 84 84 83 85 85 86 86 85 80 74 78 85 86 86 95 96 94 91 90 94 89 84 74 66 88 98 99 100 100 99 99 98 99 100 100 98 99 100 100 96 94 94 92 92 94 97 99 100 100 100 100

GFSWCAN_850_rhum_273.txt.gz
RH
100 99 98 98 99 94 95 97 98 98 100 90 87 93 98 88 75 97 98 88 96 97 90 71 74 78 82 84 98 86 73 86 81 88 91 90 87 92 90 96 99 93 100 100 96 98 96 93 71 81 97 98 98 99
92 100 98 100 98 98 98 96 99 94 93 100 100 98 96 92 84 91 98 77 97 100 93 75 78 79 84 87 94 87 88 84 90 94 94 92 84 89 93 93 90 94 98 100 95 93 96 100 100 100 96 99 100 100
100 99 98 100 96 98 90 94 97 99 97 97 89 94 90 84 85 78 84 77 98 96 96 84 89 89 91 80 89 96 93 82 82 76 92 96 99 98 100 99 100 96 93 99 94 96 99 98 92 90 95 98 95 94
100 98 99 100 99 98 99 99 95 98 88 88 93 94 85 76 79 76 80 86 100 95 79 96 100 80 87 99 100 94 94 88 91 81 86 97 96 80 98 92 95 97 90 100 100 96 98 97 96 93 87 89 87 89
99 98 99 94 98 100 95 92 89 92 90 94 84 86 79 60 78 68 62 98 97 89 92 96 95 92 89 97 91 98 96 96 96 93 93 99 91 88 92 85 100 100 99 99 99 99 98 97 98 97 90 90 95 94
98 100 95 99 98 90 92 90 88 92 95 94 90 99 59 70 80 78 96 93 95 94 77 96 95 97 99 98 93 94 94 83 82 84 96 88 96 96 99 100 100 99 100 97 98 98 98 97 98 94 93 94 100 98
92 97 96 91 89 94 93 94 90 89 93 92 97 89 88 81 80 96 98 97 100 95 81 96 94 61 93 97 90 76 72 79 77 84 94 92 90 74 96 100 100 98 100 98 96 94 99 95 96 97 98 95 99 99
95 92 92 94 94 94 95 93 93 92 95 95 66 80 88 89 88 86 94 96 96 87 75 96 92 66 64 72 95 95 84 73 87 92 93 94 78 70 99 100 99 95 100 97 94 97 98 100 100 100 100 96 95 96
81 45 94 94 92 95 95 56 35 36 40 49 75 91 70 69 73 84 75 73 74 82 94 86 94 96 64 66 67 95 94 93 94 95 95 82 84 100 98 98 97 98 100 99 97 100 98 96 92 100 96 96 100 99
22 57 90 52 94 94 75 35 32 32 42 66 80 77 86 87 84 80 68 59 62 69 75 94 74 93 82 77 95 86 92 96 100 96 72 88 100 98 99 98 98 98 98 99 93 92 96 94 98 98 97 100 100 100
24 32 28 92 95 69 42 34 32 32 36 47 56 66 62 62 65 68 73 78 70 90 80 78 77 90 84 97 99 96 97 94 99 96 89 96 100 98 99 96 96 97 98 99 98 100 100 100 100 98 93 99 99 96
23 21 74 74 35 43 41 38 36 36 39 43 46 51 45 44 48 66 95 73 92 99 93 91 83 83 90 96 96 91 96 90 100 92 88 100 98 98 97 99 100 100 99 98 100 99 98 97 100 99 98 99 97 96
20 34 84 36 37 43 43 40 40 44 46 45 40 50 52 66 88 94 100 96 100 96 99 90 94 92 93 92 96 92 93 100 79 93 100 100 99 99 98 99 95 94 97 94 93 100 100 100 99 100 98 98 97 96
17 45 49 40 40 45 40 38 38 46 43 53 61 99 91 100 99 99 100 99 95 97 89 94 100 97 96 94 97 93 96 82 96 97 100 99 100 100 99 100 100 100 100 100 99 100 100 100 100 100 99 99 98 96
22 43 50 38 44 44 39 35 32 39 38 66 70 100 98 95 81 85 82 84 89 81 95 95 96 81 90 95 83 84 90 99 94 99 97 100 100 100 98 100 100 100 100 100 100 100 100 100 100 99 100 100 100 99
31 39 49 57 49 30 41 30 30 30 48 65 71 82 76 78 83 86 82 85 82 97 97 98 84 93 99 97 92 100 94 98 97 97 99 99 100 98 99 99 100 100 100 100 100 100 100 100 100 100 100 100 98 99
36 34 31 60 50 26 30 32 31 53 72 74 75 73 72 82 90 90 90 90 84 90 97 81 96 100 74 93 99 98 100 98 100 99 96 100 100 96 98 98 100 100 100 100 100 100 100 100 100 100 97 97 96 100
32 28 28 58 66 54 26 38 36 43 72 70 72 77 90 94 99 100 96 84 78 89 82 94 70 100 100 100 100 98 100 99 100 99 100 100 100 100 100 100 100 100 100 98 97 95 98 98 96 95 92 91 91 96
31 25 32 59 36 35 40 43 43 69 78 79 73 66 75 82 79 81 82 72 64 69 67 71 96 100 100 99 98 98 99 100 100 93 96 100 98 100 100 100 98 98 99 99 94 93 100 100 100 100 97 95 100 100
33 25 24 43 41 40 50 58 60 72 87 87 96 94 72 71 68 64 62 61 63 69 86 97 100 100 100 100 100 100 100 100 100 98 91 89 94 100 100 100 100 100 99 98 97 100 100 100 94 94 98 100 100 95
31 27 26 23 33 50 74 76 80 93 96 84 88 86 75 60 58 67 73 71 74 100 100 99 100 100 100 100 100 100 100 100 100 100 100 100 100 100 99 100 99 99 100 100 97 90 96 99 99 98 100 99 97 100
29 26 24 32 45 59 72 87 88 91 82 83 85 82 85 84 79 87 76 84 100 100 100 100 100 100 100 100 100 100 100 100 100 100 100 100 98 97 98 100 99 96 99 100 99 99 97 100 100 100 100 100 100 99
25 25 30 36 44 55 71 73 73 78 84 92 88 82 89 84 77 81 85 98 100 100 100 100 100 100 100 100 100 100 100 100 100 100 100 98 100 100 100 100 100 100 94 91 100 100 98 100 100 100 100 99 98 93
26 29 38 47 49 69 64 70 77 76 77 86 94 99 91 76 71 78 100 99 100 100 100 100 98 92 90 92 97 100 100 100 99 99 100 100 98 95 100 99 100 100 100 99 99 99 100 100 100 99 96 98 97 93
26 56 51 65 63 59 78 81 82 82 100 100 98 98 81 81 94 100 100 99 97 100 100 100 99 100 100 99 99 100 100 100 100 98 100 100 100 92 90 93 97 100 100 97 100 100 100 100 100 100 100 100 99 99
93 79 74 84 76 74 94 97 100 99 98 97 100 94 80 81 99 100 100 99 100 100 100 100 100 97 95 100 100 99 100 100 100 98 99 100 100 98 97 97 95 92 100 100 100 100 100 98 100 100 100 100 100 100
87 86 73 84 78 75 83 87 94 86 100 100 100 91 86 100 100 99 98 100 100 100 100 100 100 100 100 100 100 100 100 100 100 100 98 96 100 100 100 100 100 97 100 100 100 100 100 100 100 100 100 100 100 100
77 67 63 73 74 76 82 91 98 100 100 100 97 99 98 98 98 95 100 100 100 100 100 100 100 100 100 100 100 99 96 98 100 100 99 100 100 100 100 100 100 100 100 100 100 100 100 100 100 99 100 100 100 100
77 75 76 79 80 83 97 100 98 95 97 99 96 95 87 86 94 100 100 100 100 100 96 94 94 98 100 100 100 100 99 98 92 88 90 90 88 97 99 100 99 99 99 99 100 100 100 100 100 100 100 100 100 100
80 80 71 78 82 97 87 84 81 87 92 94 92 88 86 85 91 100 100 100 97 96 100 100 100 99 98 97 98 100 100 100 99 100 98 99 100 100 100 100 100 100 100 100 99 99 100 99 100 99 99 99 100 100
82 78 68 78 81 85 82 82 85 86 87 90 89 87 82 80 88 98 100 98 98 97 85 80 78 84 87 97 96 91 89 97 100 100 100 100 100 100 100 100 100 100 100 100 100 99 100 100 100 100 100 99 100 100
76 79 72 74 76 80 83 83 82 83 81 77 78 82 84 82 90 97 99 94 83 83 93 89 74 66 67 94 100 100 100 100 100 96 97 100 100 100 100 100 97 89 65 50 52 52 53 59 77 91 98 100 100 100
75 75 77 80 80 81 83 82 83 83 78 72 71 79 85 87 87 95 98 96 95 98 94 81 64 58 60 69 94 100 99 90 74 62 63 90 96 71 72 71 57 48 42 42 43 44 45 47 48 49 50 53 60 74